Pardubice, Czech Republic

1:52 PM CET on February 27, 2017 (GMT +0100)
Pardubice

Weather History for LKPD - August, 2014

Change the Weather History Date:

Thursday, August 21, 2014

  Actual Average Record
Temperature  
Mean Temperature 60 °F -  
Max Temperature 68 °F - - ()
Min Temperature 53 °F - - ()
Degree Days  
Heating Degree Days 4    
Growing Degree Days 10 (Base 50)    
Moisture  
Dew Point 48 °F    
Average Humidity 61    
Maximum Humidity 88    
Minimum Humidity 34    
Precipitation  
Precipitation 0.00 in - - ()
Sea Level Pressure  
Sea Level Pressure 30.01 in    
Wind  
Wind Speed 3 mph ()    
Max Wind Speed 9 mph    
Max Gust Speed -    
Visibility 11.2 miles    
Events Rain    
T = Trace of Precipitation, MM = Missing Value Source: Averaged Metar Reports

Daily Weather History Graph

Daily Weather History Graph

Search for Another Location

Airport or City:

Trip Planner

Search our weather history database for the weather conditions in past years. The results will help you decide how hot, cold, wet, or windy it might be!

Date:

Astronomy

Aug. 21, 2014 Rise Set
Actual Time 5:55 AM CEST 8:04 PM CEST
Civil Twilight 5:20 AM CEST 8:39 PM CEST
Nautical Twilight 4:36 AM CEST 9:22 PM CEST
Astronomical Twilight 3:46 AM CEST 10:12 PM CEST
Moon 2:00 AM CEST (8/21) 5:29 PM CEST (8/21)
Length of Visible Light 15h 19m
Length of Day
14h 08m
Waning Crescent, 15% of the Moon is Illuminated
Aug 21
Waning Crescent
Aug 25
New
Sep 2
First Quarter
Sep 9
Full
Sep 16
Last Quarter

Hourly Weather History & Observations

Time (CEST) Temp. Dew Point Humidity Pressure Visibility Wind Dir Wind Speed Gust Speed Precip Events Conditions
12:00 AM 59 °F 50 °F 65% 30.00 in 12 mi SSE 2.2 mph - -   Partly Cloudy
1:00 AM 59 °F 51 °F 67% 30.00 in 12 mi South 2.2 mph - -   Mostly Cloudy
1:00 AM 59.0 °F 51.8 °F 77% 30.01 in - Calm Calm - N/A   Clear
2:00 AM 59 °F 51 °F 69% 29.99 in 12 mi West 2.2 mph - -   Overcast
2:00 AM 59.0 °F 51.8 °F 77% 29.98 in - Variable 2.3 mph - N/A   Clear
3:00 AM 57 °F 51 °F 76% 29.99 in 12 mi East 2.2 mph - -   Overcast
3:00 AM 57.2 °F 51.8 °F 82% 29.98 in - East 1.2 mph - N/A   Clear
4:00 AM 55 °F 52 °F 84% 29.99 in 12 mi Calm Calm - -   Overcast
4:00 AM 55.4 °F 51.8 °F 88% 29.98 in - Calm Calm - N/A   Clear
5:00 AM 56 °F 53 °F 85% 30.00 in 12 mi Calm Calm - -   Overcast
5:00 AM 55.4 °F 51.8 °F 88% 29.98 in - Calm Calm - N/A   Clear
6:00 AM 56 °F 49 °F 71% 30.00 in 12 mi West 4.5 mph - -   Overcast
6:00 AM 55.4 °F 50.0 °F 82% 29.98 in - West 4.6 mph - N/A   Clear
7:00 AM 54 °F 48 °F 74% 30.01 in 12 mi West 2.2 mph - -   Mostly Cloudy
8:00 AM 56 °F 48 °F 67% 30.01 in 12 mi West 6.7 mph - -   Mostly Cloudy
8:00 AM 55.4 °F 48.2 °F 77% 30.01 in - West 6.9 mph - N/A   Clear
9:00 AM 58 °F 48 °F 60% 30.03 in 12 mi West 8.9 mph - -   Mostly Cloudy
9:00 AM 57.2 °F 48.2 °F 72% 30.01 in - West 8.1 mph - N/A   Clear
10:00 AM 60 °F 48 °F 55% 30.02 in 12 mi WNW 6.7 mph - -   Mostly Cloudy
10:00 AM 60.8 °F 48.2 °F 63% 30.01 in - WNW 6.9 mph - N/A   Clear
11:00 AM 62 °F 47 °F 48% 30.02 in 12 mi WNW 8.9 mph - -   Scattered Clouds
11:00 AM 62.6 °F 46.4 °F 55% 30.04 in 6.2 mi West 9.2 mph - N/A   Mostly Cloudy
12:00 PM 64 °F 46 °F 41% 30.01 in 12 mi WSW 4.5 mph - -   Scattered Clouds
12:00 PM 64.4 °F 46.4 °F 52% 30.01 in 6.2 mi West 4.6 mph - N/A   Scattered Clouds
1:00 PM 65 °F 43 °F 34% 30.01 in 12 mi NNW 4.5 mph - -   Scattered Clouds
1:00 PM 66.2 °F 42.8 °F 43% 30.01 in 6.2 mi Variable 3.5 mph - N/A   Scattered Clouds
2:00 PM 65 °F 45 °F 36% 30.02 in 12 mi WSW 8.9 mph - -   Partly Cloudy
2:00 PM 66.2 °F 44.6 °F 46% 30.01 in - WSW 8.1 mph - N/A   Clear
3:00 PM 66 °F 46 °F 38% 30.01 in 12 mi SW 6.7 mph - - Rain Light Rain Showers
3:00 PM 66.2 °F 46.4 °F 49% 30.01 in - SW 6.9 mph - N/A   Clear
4:00 PM 66 °F 46 °F 37% 30.00 in 12 mi SSW 2.2 mph - -   Partly Cloudy
4:00 PM 66.2 °F 46.4 °F 49% 30.01 in - Variable 4.6 mph - N/A   Clear
5:00 PM 67 °F 47 °F 37% 30.00 in 12 mi WSW 6.7 mph - -   Partly Cloudy
5:00 PM 68.0 °F 46.4 °F 46% 30.01 in - WSW 6.9 mph - N/A   Clear
6:00 PM 66 °F 47 °F 39% 29.99 in 12 mi SW 6.7 mph - -   Scattered Clouds
6:00 PM 66.2 °F 48.2 °F 52% 30.01 in - SW 5.8 mph - N/A   Clear
7:00 PM 65 °F 47 °F 41% 30.00 in 12 mi SW 4.5 mph - -   Scattered Clouds
8:00 PM 62 °F 48 °F 51% 30.01 in 12 mi SW 2.2 mph - -   Partly Cloudy
8:00 PM 62.6 °F 48.2 °F 59% 30.01 in - SW 1.2 mph - N/A   Clear
9:00 PM 58 °F 49 °F 63% 30.03 in 12 mi SSW 2.2 mph - -   Partly Cloudy
9:00 PM 57.2 °F 48.2 °F 72% 30.01 in - SSW 2.3 mph - N/A   Clear
10:00 PM 55 °F 48 °F 69% 30.04 in 12 mi SSW 2.2 mph - -   Scattered Clouds
10:00 PM 55.4 °F 48.2 °F 77% 30.04 in - SSW 2.3 mph - N/A   Clear
11:00 PM 53 °F 47 °F 73% 30.05 in 9 mi South 2.2 mph - -   Scattered Clouds
11:00 PM 53.6 °F 46.4 °F 77% 30.04 in - Calm Calm - N/A   Clear